Regional Weather Roundup
Issued by NWS Bismarck, ND

Home | Current Version | Previous Version | Text Only | Print | Product List | Glossary On
Versions: 1 2 3 4 5 6 7 8 9 10 11 12 13 14 15 16 17 18 19 20 21 22 23 24 25 26 27 28 29 30 31 32 33 34 35 36 37 38 39 40 41 42 43 44 45 46 47 48 49 50
000
ASUS43 KBIS 101502
RWRBIS

NWR BROADCAST TEXT
NATIONAL WEATHER SERVICE BISMARCK ND
900 AM CST SAT DEC 10 2016

NOTE: "FAIR" INDICATES FEW OR NO CLOUDS BELOW 12,000 FEET WITH NO
SIGNIFICANT WEATHER AND/OR OBSTRUCTIONS TO VISIBILITY.


CITY           SKY/WX    TMP DP  RH WIND       PRES   REMARKS
WILLISTON      CLOUDY    -7 -12  79 E6        30.18F WCI -20
MINOT          CLOUDY   -20 -25  77 CALM      30.29F
MINOT AFB      CLOUDY   -24 -30  75 S1        30.30F
BISMARCK       CLOUDY   -17 -22  78 E6        30.33S WCI -32
DICKINSON      CLOUDY    -5 -10  79 SE16      30.09F WCI -27
GARRISON         N/A    -13 -17  82 E7        30.26F WCI -29
HETTINGER ARPT CLOUDY    -5  -9  83 SE12      30.10F FOG     WCI -23
JAMESTOWN      CLOUDY   -12 -16  82 CALM      30.35F
CARRINGTON     FAIR     -20 -26  76 NE3       30.35F
HAZEN          PTSUNNY  -18 -26  69 SE3       30.29F
RUGBY            N/A    -18 -22  83 SE3       30.35S
STANLEY        CLOUDY   -17 -20  83 SE3       30.22S HAZE
TIOGA          PTSUNNY  -18 -22  83 E6        30.19F WCI -33
WATFORD CITY   CLOUDY    -8 -13  77 SE12      30.17F WCI -27
$$

CITY           SKY/WX    TMP DP  RH WIND       PRES   REMARKS
GRAND FORKS    CLOUDY    -8 -14  74 N5        30.47F WCI -19
GRAND FORKS AF CLOUDY   -13 -19  75 CALM      30.46F
DEVILS LAKE    CLOUDY   -16 -20  82 CALM      30.37F
FARGO          CLOUDY    -4 -10  75 CALM      30.45F
GRAFTON        FAIR     -13 -17  84 CALM      30.50S
GWINNER        CLOUDY    -6  -9  84 E5        30.40F WCI -17
LANGDON        FAIR     -17 -22  76 S6        30.35F WCI -31
$$

CITY           SKY/WX    TMP DP  RH WIND       PRES   REMARKS
ABERDEEN       CLOUDY    -4 -12  68 NE9       30.38F WCI -20
MOBRIDGE       CLOUDY    -1  -9  68 E8        30.25F WCI -15
BUFFALO          N/A      0  -4  83 SE16      29.92F WCI -20
RAPID CITY     CLOUDY     2  -2  83 SE8       29.99F WCI -12
GLASGOW        LGT SNOW  -2  -7  79 E17       30.01F WCI -23
SIDNEY         FLURRIES  -1  -7  75 E8        30.14F WCI -15
WOLF POINT     FLURRIES  -3 -10  72 E15       30.10F WCI -23
GLENDIVE       CLOUDY     0  -4  83 E10       30.03F WCI -16
MILES CITY     CLOUDY     7  -1  70 SE13      29.94F WCI  -9
BAKER          CLOUDY     0  -6  76 SE24      29.98F WCI -24
$$

CITY           SKY/WX    TMP DP  RH WIND       PRES   REMARKS
BILLINGS       LGT SNOW   8   5  87 CALM      29.80F VSB 1
GREAT FALLS    CLOUDY     1  -3  83 N3        29.74F
$$




USA.gov is the U.S. government's official web portal to all federal, state and local government web resources and services.